Date,TemperatureHighF,TemperatureAvgF,TemperatureLowF,DewpointHighF,DewpointAvgF,DewpointLowF,HumidityHigh,HumidityAvg,HumidityLow,PressureMaxIn,PressureMinIn,WindSpeedMaxMPH,WindSpeedAvgMPH,GustSpeedMaxMPH,PrecipitationSumIn
2013-3-1,41.5,38.8,35.2,35.3,32.5,28.3,86,78,67,30.16,29.99,11,3,14,0.00
2013-3-2,48.5,40.5,34.7,29.7,27.0,25.5,73,59,43,30.14,30.03,10,3,13,0.00
2013-3-3,50.7,40.1,30.9,30.4,27.3,24.5,77,61,40,30.12,29.98,12,3,16,0.00
2013-3-4,49.8,40.1,31.2,30.5,26.4,24.2,77,59,40,30.33,30.07,11,2,16,0.00
2013-3-5,55.2,42.9,31.8,29.1,25.6,23.5,76,53,30,30.35,30.12,8,1,15,0.00
2013-3-6,53.2,45.5,37.7,39.6,32.9,26.7,69,61,55,30.12,29.79,6,1,7,0.00
2013-3-7,55.2,51.0,47.4,45.8,42.7,39.4,80,73,68,29.79,29.63,12,1,12,0.00
2013-3-8,58.8,51.7,47.1,48.9,45.7,43.0,86,80,68,29.65,29.56,10,2,11,0.00
2013-3-9,58.8,52.5,48.3,49.8,46.8,45.2,90,81,71,29.57,29.53,7,2,8,0.02
2013-3-10,57.0,51.7,48.7,48.6,45.9,43.3,89,81,65,29.53,29.43,7,1,10,0.06
2013-3-11,59.5,50.2,43.5,47.1,40.7,33.5,87,71,48,29.54,29.44,9,2,12,0.00
2013-3-12,56.8,49.6,42.0,42.8,37.0,30.2,81,62,51,29.55,29.41,8,1,9,0.02
2013-3-13,52.8,48.5,46.2,45.7,42.1,39.5,86,79,66,29.44,29.39,9,2,9,0.02
2013-3-14,46.2,36.7,27.3,41.0,33.2,24.7,91,87,78,29.43,29.26,21,3,21,0.55
2013-3-15,33.0,28.9,25.3,24.9,21.7,18.4,90,76,57,29.90,29.26,19,2,23,0.00
2013-3-16,36.3,31.3,26.9,19.7,17.6,14.8,70,57,44,30.15,29.89,14,4,18,0.02
2013-3-17,39.5,31.6,24.8,23.6,19.0,15.9,76,60,42,30.16,30.00,14,2,14,0.00
2013-3-18,39.7,35.5,31.2,36.1,27.7,19.3,87,74,60,30.00,29.35,13,3,15,0.43
2013-3-19,53.2,44.5,39.3,38.7,34.2,29.0,89,69,44,29.69,29.27,18,4,21,0.04
2013-3-20,59.5,49.0,37.0,40.3,35.9,29.7,79,62,43,29.73,29.68,16,2,19,0.00
2013-3-21,51.9,43.6,36.1,42.0,37.7,28.9,86,80,65,29.77,29.70,23,6,27,0.39
2013-3-22,43.5,37.3,32.1,29.2,26.4,23.1,76,65,53,29.95,29.74,32,9,32,0.00
2013-3-23,35.4,32.8,29.3,25.1,23.7,21.0,77,69,63,30.10,29.95,6,1,9,0.00
2013-3-24,35.4,30.1,24.0,20.9,11.8,8.5,65,47,36,30.18,30.07,9,2,12,0.00
2013-3-25,37.2,31.7,29.1,28.1,18.2,10.4,89,60,41,30.07,29.70,14,5,18,0.00
2013-3-26,32.7,30.1,28.2,28.2,26.5,24.8,90,86,81,29.75,29.66,14,4,15,0.00
2013-3-27,33.6,31.2,28.5,29.8,27.7,25.7,89,87,82,29.93,29.74,8,1,8,0.02
2013-3-28,39.7,34.9,32.1,30.5,29.0,27.8,87,79,67,30.02,29.93,9,2,11,0.18
2013-3-29,37.4,36.2,34.7,34.1,32.2,29.8,88,85,79,29.97,29.71,9,2,11,0.47
2013-3-30,48.2,41.4,35.7,40.7,36.4,32.2,90,83,70,29.72,29.53,9,2,13,0.27
2013-3-31,47.4,41.9,34.1,44.8,38.2,26.7,91,86,74,29.63,29.34,14,3,17,0.49